This is the latest recevied weather packets stored in our database for station/object DB0OHL. If no packets are shown the sender has not sent any weather packets the latest 10 day(s).
| Time | Temp. | Humidity | Pressure | Rain* | Wind** | Luminosity | Snow |
|---|---|---|---|---|---|---|---|
| 1778141142 | 10° C | 90% | 1014.3 hPa | 0 mm | - | - | - |
| 1778140540 | 10° C | 89% | 1014.2 hPa | 0 mm | - | - | - |
| 1778139937 | 10° C | 94% | 1014.2 hPa | 0 mm | - | - | - |
| 1778139334 | 9.44° C | 95% | 1014.2 hPa | 0 mm | - | - | - |
| 1778138732 | 8.89° C | 97% | 1014.1 hPa | 0 mm | - | - | - |
| 1778138129 | 8.89° C | 97% | 1014.3 hPa | 0 mm | - | - | - |
| 1778137527 | 8.89° C | 97% | 1014.2 hPa | 0 mm | - | - | - |
| 1778136924 | 7.78° C | 98% | 1014.3 hPa | 0 mm | - | - | - |
| 1778136322 | 7.78° C | 98% | 1014.2 hPa | 0 mm | - | - | - |
| 1778135719 | 7.78° C | 99% | 1014.2 hPa | 0 mm | - | - | - |
| 1778135117 | 7.22° C | 99% | 1014.1 hPa | 0 mm | - | - | - |
| 1778134574 | 7.22° C | 99% | 1014 hPa | 0 mm | - | - | - |
| 1778133972 | 6.67° C | 99% | 1014 hPa | 0 mm | - | - | - |
| 1778133369 | 6.67° C | 99% | 1013.8 hPa | 0 mm | - | - | - |
| 1778132767 | 6.67° C | 99% | 1013.7 hPa | 0 mm | - | - | - |
| 1778132164 | 6.67° C | 99% | 1013.8 hPa | 0 mm | - | - | - |
| 1778131562 | 6.67° C | 99% | 1013.6 hPa | 0 mm | - | - | - |
| 1778130959 | 6.11° C | 99% | 1013.6 hPa | 0 mm | - | - | - |
| 1778130357 | 6.11° C | 99% | 1013.5 hPa | 0 mm | - | - | - |
| 1778129754 | 6.11° C | 99% | 1013.3 hPa | 0 mm | - | - | - |
| 1778129152 | 6.11° C | 99% | 1013.1 hPa | 0 mm | - | - | - |
| 1778128549 | 6.11° C | 99% | 1013.1 hPa | 0 mm | - | - | - |
| 1778127946 | 6.67° C | 99% | 1013.1 hPa | 0 mm | - | - | - |
| 1778127344 | 6.67° C | 99% | 1013.1 hPa | 0 mm | - | - | - |
| 1778126741 | 6.67° C | 99% | 1012.9 hPa | 0 mm | - | - | - |
* Rain latest hour (hover to see other rain measurements)
** Current wind speed in m/s (hover to see current wind gust speed)